H1 CPF 2 NER 2023 1 8 9 008 01 glonass129 H2 1106402 9129 37868 2023 1 8 0 0 0 2023 1 11 23 45 0 900 1 1 0 0 0 1 H9 10 0 59952 0.00000 0 25256545.252 3772489.005 233696.217 10 0 59952 900.00000 0 25053871.648 3592620.245 3434564.777 10 0 59952 1800.00000 0 24449849.025 3411621.622 6568982.176 10 0 59952 2700.00000 0 23457240.175 3284167.646 9576353.662 10 0 59952 3600.00000 0 22101582.402 3261601.621 12398581.576 10 0 59952 4500.00000 0 20420200.382 3389549.748 14981170.671 10 0 59952 5400.00000 0 18460749.613 3705782.306 17274262.397 10 0 59952 6300.00000 0 16279350.827 4238410.742 19233579.891 10 0 59952 7200.00000 0 13938392.200 5004495.503 20821267.115 10 0 59952 8100.00000 0 11504089.191 6009122.599 22006607.605 10 0 59952 9000.00000 0 9043901.448 7244987.774 22766610.412 10 0 59952 9900.00000 0 6623911.838 8692506.594 23086452.837 10 0 59952 10800.00000 0 4306274.049 10320447.482 22959771.961 10 0 59952 11700.00000 0 2146832.561 12087063.599 22388799.217 10 0 59952 12600.00000 0 193012.094 13941678.994 21384334.650 10 0 59952 13500.00000 0 -1517937.049 15826665.862 19965560.027 10 0 59952 14400.00000 0 -2960265.364 17679733.283 18159692.582 10 0 59952 15300.00000 0 -4120566.923 19436434.413 16001483.896 10 0 59952 16200.00000 0 -4998102.821 21032789.286 13532571.315 10 0 59952 17100.00000 0 -5604590.802 22407914.684 10800692.141 10 0 59952 18000.00000 0 -5963468.644 23506551.029 7858773.907 10 0 59952 18900.00000 0 -6108661.175 24281379.672 4763916.893 10 0 59952 19800.00000 0 -6082901.985 24695031.655 1576287.658 10 0 59952 20700.00000 0 -5935680.253 24721701.318 -1642054.935 10 0 59952 21600.00000 0 -5720899.763 24348294.268 -4828377.936 10 0 59952 22500.00000 0 -5494350.145 23575058.759 -7920511.890 10 0 59952 23400.00000 0 -5311099.019 22415671.455 -10858081.903 10 0 59952 24300.00000 0 -5222917.759 20896772.072 -13583706.275 10 0 59952 25200.00000 0 -5275852.459 19056965.200 -16044137.176 10 0 59952 26100.00000 0 -5508045.647 16945330.810 -18191319.023 10 0 59952 27000.00000 0 -5947903.456 14619506.291 -19983342.138 10 0 59952 27900.00000 0 -6612688.012 12143421.308 -21385271.719 10 0 59952 28800.00000 0 -7507596.098 9584781.807 -22369835.002 10 0 59952 29700.00000 0 -8625364.065 7012409.929 -22917952.882 10 0 59952 30600.00000 0 -9946416.036 4493552.420 -23019105.804 10 0 59952 31500.00000 0 -11439548.892 2091271.075 -22671527.393 10 0 59952 32400.00000 0 -13063124.563 -137975.403 -21882223.062 10 0 59952 33300.00000 0 -14766718.436 -2146457.511 -20666814.520 10 0 59952 34200.00000 0 -16493153.414 -3896921.248 -19049214.646 10 0 59952 35100.00000 0 -18180833.063 -5363883.574 -17061140.570 10 0 59952 36000.00000 0 -19766274.944 -6534425.412 -14741475.913 10 0 59952 36900.00000 0 -21186737.134 -7408451.974 -12135496.013 10 0 59952 37800.00000 0 -22382827.543 -7998412.874 -9293972.444 10 0 59952 38700.00000 0 -23300986.810 -8328497.092 -6272175.226 10 0 59952 39600.00000 0 -23895741.292 -8433339.749 -3128792.970 10 0 59952 40500.00000 0 -24131632.818 -8356297.766 75207.602 10 0 59952 41400.00000 0 -23984745.686 -8147369.150 3277760.507 10 0 59952 42300.00000 0 -23443768.459 -7860844.879 6416894.949 10 0 59952 43200.00000 0 -22510547.665 -7552793.001 9431922.827 10 0 59952 44100.00000 0 -21200111.520 -7278480.894 12264597.246 10 0 59952 45000.00000 0 -19540163.670 -7089843.572 14860220.799 10 0 59952 45900.00000 0 -17570068.501 -7033103.584 17168683.742 10 0 59952 46800.00000 0 -15339370.128 -7146641.310 19145413.741 10 0 59952 47700.00000 0 -12905905.929 -7459203.970 20752220.525 10 0 59952 48600.00000 0 -10333591.583 -7988527.589 21958020.845 10 0 59952 49500.00000 0 -7689967.637 -8740429.308 22739431.179 10 0 59952 50400.00000 0 -5043607.137 -9708408.335 23081217.720 10 0 59952 51300.00000 0 -2461489.342 -10873773.200 22976595.525 10 0 59952 52200.00000 0 -6445.977 -12206291.739 22427370.938 10 0 59952 53100.00000 0 2265216.059 -13665338.910 21443923.819 10 0 59952 54000.00000 0 4305818.580 -15201497.153 20045028.626 10 0 59952 54900.00000 0 6078056.168 -16758545.248 18257515.978 10 0 59952 55800.00000 0 7556308.157 -18275755.093 16115779.064 10 0 59952 56700.00000 0 8727463.595 -19690402.477 13661132.167 10 0 59952 57600.00000 0 9591223.964 -20940388.164 10941031.365 10 0 59952 58500.00000 0 10159869.823 -21966859.935 8008170.630 10 0 59952 59400.00000 0 10457500.005 -22716725.178 4919469.262 10 0 59952 60300.00000 0 10518774.326 -23144947.156 1734969.390 10 0 59952 61200.00000 0 10387212.074 -23216526.304 -1483335.186 10 0 59952 62100.00000 0 10113118.042 -22908080.571 -4672715.576 10 0 59952 63000.00000 0 9751224.309 -22208955.394 -7770945.036 10 0 59952 63900.00000 0 9358148.800 -21121813.778 -10717530.989 10 0 59952 64800.00000 0 8989780.053 -19662679.175 -13454915.913 10 0 59952 65700.00000 0 8698701.236 -17860427.475 -15929621.518 10 0 59952 66600.00000 0 8531764.970 -15755748.356 -18093311.791 10 0 59952 67500.00000 0 8527924.098 -13399619.235 -19903752.373 10 0 59952 68400.00000 0 8716412.338 -10851356.156 -21325646.174 10 0 59952 69300.00000 0 9115353.474 -8176324.230 -22331327.922 10 0 59952 70200.00000 0 9730858.943 -5443404.660 -22901303.786 10 0 59952 71100.00000 0 10556652.375 -2722325.482 -23024625.655 10 0 59952 72000.00000 0 11574236.730 -80968.717 -22699093.391 10 0 59952 72900.00000 0 12753596.257 2417233.037 -21931282.093 10 0 59952 73800.00000 0 14054402.590 4715701.916 -20736395.095 10 0 59952 74700.00000 0 15427672.808 6766822.202 -19137947.025 10 0 59952 75600.00000 0 16817808.277 8533663.365 -17167284.570 10 0 59952 76500.00000 0 18164927.238 9991248.897 -14862955.786 10 0 59952 77400.00000 0 19407391.964 11127320.584 -12269941.630 10 0 59952 78300.00000 0 20484423.647 11942569.391 -9438765.933 10 0 59952 79200.00000 0 21338694.879 12450326.640 -6424502.135 10 0 59952 80100.00000 0 21918791.082 12675731.661 -3285696.929 10 0 59952 81000.00000 0 22181438.199 12654413.894 -83232.249 10 0 59952 81900.00000 0 22093404.186 12430747.360 3120852.222 10 0 59952 82800.00000 0 21632995.816 12055752.726 6264553.229 10 0 59952 83700.00000 0 20791089.360 11584736.390 9287092.268 10 0 59952 84600.00000 0 19571653.306 11074766.336 12130076.019 10 0 59952 85500.00000 0 17991742.097 10582090.563 14738607.530 10 0 59953 0.00000 0 16080961.803 10159605.860 17062328.059 10 0 59953 900.00000 0 13880428.860 9854481.853 19056372.346 10 0 59953 1800.00000 0 11441267.231 9706039.265 20682217.533 10 0 59953 2700.00000 0 8822701.653 9743969.365 21908415.174 10 0 59953 3600.00000 0 6089826.673 9986968.930 22711190.474 10 0 59953 4500.00000 0 3311140.813 10441847.277 23074899.491 10 0 59953 5400.00000 0 555945.599 11103143.079 22992335.852 10 0 59953 6300.00000 0 -2108285.369 11953268.039 22464880.992 10 0 59953 7200.00000 0 -4618460.617 12963173.080 21502494.314 10 0 59953 8100.00000 0 -6918244.328 14093511.425 20123542.227 10 0 59953 9000.00000 0 -8960152.141 15296252.427 18354467.519 10 0 59953 9900.00000 0 -10707282.707 16516681.113 16229303.336 10 0 59953 10800.00000 0 -12134612.996 17695701.975 13789038.853 10 0 59953 11700.00000 0 -13229802.737 18772352.109 11080846.580 10 0 59953 12600.00000 0 -13993473.254 19686419.157 8157184.321 10 0 59953 13500.00000 0 -14438947.808 20381054.052 5074787.624 10 0 59953 14400.00000 0 -14591463.072 20805267.795 1893571.274 10 0 59953 15300.00000 0 -14486883.944 20916205.311 -1324538.979 10 0 59953 16200.00000 0 -14169975.365 20681098.173 -4516821.346 10 0 59953 17100.00000 0 -13692304.247 20078810.979 -7620994.819 10 0 59953 18000.00000 0 -13109860.981 19100913.200 -10576452.115 10 0 59953 18900.00000 0 -12480502.572 17752228.494 -13325462.723 10 0 59953 19800.00000 0 -11861327.588 16050835.942 -15814320.540 10 0 59953 20700.00000 0 -11306096.249 14027521.427 -17994411.502 10 0 59953 21600.00000 0 -10862807.188 11724701.163 -19823178.655 10 0 59953 22500.00000 0 -10571535.519 9194862.295 -21264964.370 10 0 59953 23400.00000 0 -10462625.378 6498586.345 -22291712.276 10 0 59953 24300.00000 0 -10555314.469 3702239.098 -22883514.851 10 0 59953 25200.00000 0 -10856849.226 875424.607 -23028996.090 10 0 59953 26100.00000 0 -11362127.763 -1911689.178 -22725522.336 10 0 59953 27000.00000 0 -12053884.900 -4591060.694 -21979238.182 10 0 59953 27900.00000 0 -12903410.185 -7099368.413 -20804927.957 10 0 59953 28800.00000 0 -13871767.088 -9380399.794 -19225706.952 10 0 59953 29700.00000 0 -14911460.229 -11387136.898 -17272549.913 10 0 59953 30600.00000 0 -15968478.788 -13083453.283 -14983667.448 10 0 59953 31500.00000 0 -16984628.527 -14445353.531 -12403743.938 10 0 59953 32400.00000 0 -17900053.151 -15461706.458 -9583053.045 10 0 59953 33300.00000 0 -18655838.185 -16134444.456 -6576469.011 10 0 59953 34200.00000 0 -19196587.603 -16478223.798 -3442393.888 10 0 59953 35100.00000 0 -19472865.090 -16519563.305 -241621.996 10 0 59953 36000.00000 0 -19443398.008 -16295500.257 2963836.168 10 0 59953 36900.00000 0 -19076952.427 -15851822.196 6111947.804 10 0 59953 37800.00000 0 -18353801.790 -15240950.520 9141846.957 10 0 59953 38700.00000 0 -17266728.632 -14519565.536 11994996.785 10 0 59953 39600.00000 0 -15821518.369 -13746072.793 14616303.580 10 0 59953 40500.00000 0 -14036925.104 -12978016.580 16955162.598 10 0 59953 41400.00000 0 -11944110.836 -12269547.987 18966417.188 10 0 59953 42300.00000 0 -9585580.944 -11669052.337 20611214.390 10 0 59953 43200.00000 0 -7013658.928 -11217033.908 21857742.215 10 0 59953 44100.00000 0 -4288561.936 -10944345.214 22681835.817 10 0 59953 45000.00000 0 -1476154.646 -10870834.023 23067441.910 10 0 59953 45900.00000 0 1354528.075 -11004464.354 23006933.063 10 0 59953 46800.00000 0 4133889.867 -11340948.532 22501265.772 10 0 59953 47700.00000 0 6794407.425 -11863906.692 21559978.599 10 0 59953 48600.00000 0 9273184.003 -12545548.694 20201029.174 10 0 59953 49500.00000 0 11514317.741 -13347851.999 18450471.407 10 0 59953 50400.00000 0 13470987.378 -14224188.416 16341977.041 10 0 59953 51300.00000 0 15107168.966 -15121333.779 13916208.455 10 0 59953 52200.00000 0 16398911.675 -15981778.039 11220052.548 10 0 59953 53100.00000 0 17335118.358 -16746239.934 8305728.583 10 0 59953 54000.00000 0 17917796.970 -17356280.887 5229785.645 10 0 59953 54900.00000 0 18161770.832 -17756907.570 2052008.198 10 0 59953 55800.00000 0 18093858.605 -17899052.030 -1165749.240 10 0 59953 56700.00000 0 17751557.594 -17741822.638 -4360775.253 10 0 59953 57600.00000 0 17181285.559 -17254428.086 -7470737.849 10 0 59953 58500.00000 0 16436255.552 -16417690.208 -10434918.205 10 0 59953 59400.00000 0 15574074.582 -15225078.753 -13195415.832 10 0 59953 60300.00000 0 14654169.188 -13683221.630 -15698299.568 10 0 59953 61200.00000 0 13735148.773 -11811866.927 -17894679.788 10 0 59953 62100.00000 0 12872220.336 -9643296.635 -19741679.097 10 0 59953 63000.00000 0 12114765.992 -7221215.855 -21203281.107 10 0 59953 63900.00000 0 11504187.399 -4599163.957 -22251039.724 10 0 59953 64800.00000 0 11072109.409 -1838514.684 -22864634.675 10 0 59953 65700.00000 0 10839019.335 993850.339 -23032262.544 10 0 59953 66600.00000 0 10813399.186 3828096.382 -22750856.219 10 0 59953 67500.00000 0 10991386.646 6594111.121 -22026129.433 10 0 59953 68400.00000 0 11356977.748 9224188.628 -20872446.776 10 0 59953 69300.00000 0 11882760.879 11655609.691 -19312523.130 10 0 59953 70200.00000 0 12531149.169 13833011.306 -17376959.897 10 0 59953 71100.00000 0 13256057.221 15710447.676 -15103628.539 10 0 59953 72000.00000 0 14004949.589 17253058.348 -12536914.867 10 0 59953 72900.00000 0 14721173.050 18438276.251 -9726840.086 10 0 59953 73800.00000 0 15346473.189 19256527.882 -6728076.701 10 0 59953 74700.00000 0 15823588.571 19711399.327 -3598879.346 10 0 59953 75600.00000 0 16098813.062 19819264.272 -399951.792 10 0 59953 76500.00000 0 16124418.733 19608392.398 2806727.659 10 0 59953 77400.00000 0 15860838.137 19117578.006 5959099.693 10 0 59953 78300.00000 0 15278515.171 18394348.298 8996213.837 10 0 59953 79200.00000 0 14359347.854 17492827.618 11859392.483 10 0 59953 80100.00000 0 13097663.482 16471347.694 14493347.749 10 0 59953 81000.00000 0 11500685.902 15389903.775 16847231.051 10 0 59953 81900.00000 0 9588475.525 14307562.400 18875596.859 10 0 59953 82800.00000 0 7393344.302 13279928.041 20539263.737 10 0 59953 83700.00000 0 4958768.860 12356773.001 21806057.728 10 0 59953 84600.00000 0 2337845.255 11579928.092 22651425.235 10 0 59953 85500.00000 0 -408652.641 10981520.896 23058904.606 10 0 59954 0.00000 0 -3214533.073 10582634.318 23020448.001 10 0 59954 900.00000 0 -6010675.366 10392440.924 22536587.195 10 0 59954 1800.00000 0 -8727643.750 10407850.068 21616439.679 10 0 59954 2700.00000 0 -11298325.374 10613682.803 20277553.629 10 0 59954 3600.00000 0 -13660481.358 10983369.372 18545592.940 10 0 59954 4500.00000 0 -15759107.826 11480141.698 16453866.353 10 0 59954 5400.00000 0 -17548509.119 12058672.933 14042707.462 10 0 59954 6300.00000 0 -18993996.755 12667097.089 11358715.252 10 0 59954 7200.00000 0 -20073142.293 13249325.231 8453867.877 10 0 59954 8100.00000 0 -20776530.432 13747561.511 5384525.238 10 0 59954 9000.00000 0 -21107979.192 14104912.883 2210338.642 10 0 59954 9900.00000 0 -21084216.260 14267981.462 -1006911.516 10 0 59954 10800.00000 0 -20734023.826 14189328.250 -4204527.111 10 0 59954 11700.00000 0 -20096887.030 13829701.660 -7320128.098 10 0 59954 12600.00000 0 -19221202.809 13159933.760 -10292887.005 10 0 59954 13500.00000 0 -18162125.216 12162420.997 -13064736.175 10 0 59954 14400.00000 0 -16979139.333 10832123.860 -15581522.064 10 0 59954 15300.00000 0 -15733467.883 9177040.684 -17794081.933 10 0 59954 16200.00000 0 -14485422.055 7218133.535 -19659220.108 10 0 59954 17100.00000 0 -13291810.346 4988707.867 -21140563.266 10 0 59954 18000.00000 0 -12203516.651 2533271.374 -22209277.029 10 0 59954 18900.00000 0 -11263351.079 -94080.140 -22844629.402 10 0 59954 19800.00000 0 -10504264.879 -2831681.825 -23034390.177 10 0 59954 20700.00000 0 -9948004.758 -5612638.400 -22775058.967 10 0 59954 21600.00000 0 -9604262.564 -8367383.745 -22071918.402 10 0 59954 22500.00000 0 -9470354.782 -11026353.808 -20938912.666 10 0 59954 23400.00000 0 -9531443.421 -13522660.768 -19398355.166 10 0 59954 24300.00000 0 -9761286.697 -15794656.908 -17480472.524 10 0 59954 25200.00000 0 -10123485.429 -17788281.889 -15222795.295 10 0 59954 26100.00000 0 -10573170.240 -19459096.582 -12669408.707 10 0 59954 27000.00000 0 -11059056.284 -20773920.420 -9870079.298 10 0 59954 27900.00000 0 -11525777.129 -21712006.171 -6879275.495 10 0 59954 28800.00000 0 -11916398.156 -22265705.622 -3755102.076 10 0 59954 29700.00000 0 -12175002.853 -22440601.203 -558169.770 10 0 59954 30600.00000 0 -12249242.845 -22255100.745 2649577.874 10 0 59954 31500.00000 0 -12092744.668 -21739514.940 5806057.612 10 0 59954 32400.00000 0 -11667272.714 -20934658.198 8850237.066 10 0 59954 33300.00000 0 -10944558.343 -19890032.963 11723300.538 10 0 59954 34200.00000 0 -9907719.266 -18661674.245 14369768.594 10 0 59954 35100.00000 0 -8552210.403 -17309744.657 16738551.335 10 0 59954 36000.00000 0 -6886266.886 -15895980.032 18783916.735 10 0 59954 36900.00000 0 -4930820.412 -14481091.120 20466357.024 10 0 59954 37800.00000 0 -2718891.704 -13122228.386 21753338.130 10 0 59954 38700.00000 0 -294482.817 -11870613.945 22619919.221 10 0 59954 39600.00000 0 2288986.719 -10769437.802 23049231.437 10 0 59954 40500.00000 0 4970637.576 -9852104.740 23032807.266 10 0 59954 41400.00000 0 7684403.866 -9140904.046 22570754.207 10 0 59954 42300.00000 0 10361530.537 -8646157.304 21671768.791 10 0 59954 43200.00000 0 12933194.217 -8365880.120 20352989.480 10 0 59954 44100.00000 0 15333141.140 -8285972.862 18639689.559 10 0 59954 45000.00000 0 17500234.250 -8380933.868 16564813.843 10 0 59954 45900.00000 0 19380804.586 -8615066.886 14168365.852 10 0 59954 46800.00000 0 20930709.137 -8944133.812 11496654.971 10 0 59954 47700.00000 0 22117008.634 -9317384.698 8601416.168 10 0 59954 48600.00000 0 22919193.851 -9679880.542 5538817.673 10 0 59954 49500.00000 0 23329907.388 -9975011.169 2368374.777 10 0 59954 50400.00000 0 23355128.720 -10147101.383 -848209.413 10 0 59954 51300.00000 0 23013813.022 -10143993.887 -4048253.439 10 0 59954 52200.00000 0 22336997.596 -9919497.609 -7169332.655 10 0 59954 53100.00000 0 21366412.743 -9435595.212 -10150514.367 10 0 59954 54000.00000 0 20152655.572 -8664313.390 -12933567.026 10 0 59954 54900.00000 0 18753004.345 -7589173.778 -15464117.746 10 0 59954 55800.00000 0 17228966.816 -6206160.347 -17692733.436 10 0 59954 56700.00000 0 15643667.614 -4524160.005 -19575902.575 10 0 59954 57600.00000 0 14059186.684 -2564855.988 -21076896.981 10 0 59954 58500.00000 0 12533962.787 -362077.427 -22166495.677 10 0 59954 59400.00000 0 11120372.896 2039368.072 -22823556.236 10 0 59954 60300.00000 0 9862590.308 4585329.753 -23035422.510 10 0 59954 61200.00000 0 8794811.910 7214347.769 -22798161.259 10 0 59954 62100.00000 0 7939928.622 9860000.091 -22116623.996 10 0 59954 63000.00000 0 7308693.671 12453463.287 -21004334.060 10 0 59954 63900.00000 0 6899421.799 14926179.452 -19483202.522 10 0 59954 64800.00000 0 6698229.606 17212517.581 -17583079.982 10 0 59954 65700.00000 0 6679804.214 19252318.450 -15341154.473 10 0 59954 66600.00000 0 6808665.097 20993217.342 -12801208.662 10 0 59954 67500.00000 0 7040863.273 22392648.922 -10012752.110 10 0 59954 68400.00000 0 7326043.936 23419452.284 -7030046.551 10 0 59954 69300.00000 0 7609783.762 24055011.254 -3911044.037 10 0 59954 70200.00000 0 7836103.091 24293884.735 -716259.202 10 0 59954 71100.00000 0 7950046.426 24143903.357 2492402.317 10 0 59954 72000.00000 0 7900222.500 23625730.774 5652836.546 10 0 59954 72900.00000 0 7641197.275 22771910.074 8703932.327 10 0 59954 73800.00000 0 7135640.039 21625436.963 11586738.815 10 0 59954 74700.00000 0 6356133.236 20237920.233 14245587.779 10 0 59954 75600.00000 0 5286570.885 18667406.747 16629150.531 10 0 59954 76500.00000 0 3923087.545 16975961.465 18691410.807 10 0 59954 77400.00000 0 2274479.144 15227102.517 20392536.483 10 0 59954 78300.00000 0 362097.576 13483196.781 21699635.085 10 0 59954 79200.00000 0 -1780777.771 11802922.631 22587379.946 10 0 59954 80100.00000 0 -4110067.141 10238903.717 23038496.071 10 0 59954 81000.00000 0 -6572471.757 8835610.560 23044097.010 10 0 59954 81900.00000 0 -9107446.542 7627615.905 22603866.284 10 0 59954 82800.00000 0 -11649485.276 6638275.674 21726079.309 10 0 59954 83700.00000 0 -14130626.292 5878890.230 20427464.227 10 0 59954 84600.00000 0 -16483077.344 5348381.264 18732902.618 10 0 59954 85500.00000 0 -18641852.507 5033498.778 16674973.799 10 0 59955 0.00000 0 -20547312.661 4909550.775 14293349.444 10 0 59955 900.00000 0 -22147505.129 4941626.510 11634046.537 10 0 59955 1800.00000 0 -23400201.906 5086263.499 8748554.405 10 0 59955 2700.00000 0 -24274553.566 5293488.973 5692846.736 10 0 59955 3600.00000 0 -24752285.228 5509150.485 2526299.822 10 0 59955 4500.00000 0 -24828383.406 5677436.999 -689463.573 10 0 59955 5400.00000 0 -24511242.601 5743482.972 -3891781.725 10 0 59955 6300.00000 0 -23822263.643 5655943.487 -7018188.435 10 0 59955 7200.00000 0 -22794919.276 5369429.134 -10007648.799 10 0 59955 8100.00000 0 -21473325.666 4846694.706 -12801770.294 10 0 59955 9000.00000 0 -19910380.031 4060486.067 -15345963.479 10 0 59955 9900.00000 0 -18165543.608 2994964.163 -17590527.462 10 0 59955 10800.00000 0 -16302364.611 1646643.348 -19491637.117 10 0 59955 11700.00000 0 -14385847.122 24802.280 -21012211.260 10 0 59955 12600.00000 0 -12479778.375 -1848651.401 -22122643.712 10 0 59955 13500.00000 0 -10644128.396 -3939857.736 -22801382.522 10 0 59955 14400.00000 0 -8932632.376 -6204194.274 -23035346.003 10 0 59955 15300.00000 0 -7390657.912 -8587928.681 -22820167.970 10 0 59955 16200.00000 0 -6053446.401 -11030264.215 -22160268.261 10 0 59955 17100.00000 0 -4944801.401 -13465691.546 -21068748.388 10 0 59955 18000.00000 0 -4076277.296 -15826547.614 -19567115.734 10 0 59955 18900.00000 0 -3446899.963 -18045673.874 -17684843.203 10 0 59955 19800.00000 0 -3043428.325 -20059062.606 -15458774.369 10 0 59955 20700.00000 0 -2841142.792 -21808380.765 -12932387.214 10 0 59955 21600.00000 0 -2805124.340 -23243266.667 -10154932.077 10 0 59955 22500.00000 0 -2891967.602 -24323304.746 -7180461.670 10 0 59955 23400.00000 0 -3051853.417 -25019597.480 -4066772.982 10 0 59955 24300.00000 0 -3230891.648 -25315870.814 -874282.191 10 0 59955 25200.00000 0 -3373634.368 -25209069.115 2335145.330 10 0 59955 26100.00000 0 -3425652.913 -24709416.932 5499387.197 10 0 59955 27000.00000 0 -3336070.339 -23839947.215 8557255.808 10 0 59955 27900.00000 0 -3059943.150 -22635517.254 11449667.509 10 0 59955 28800.00000 0 -2560392.916 -21141354.572 14120767.554 10 0 59955 29700.00000 0 -1810399.185 -19411194.130 16518990.678 10 0 59955 30600.00000 0 -794179.180 -17505084.270 18598038.471 10 0 59955 31500.00000 0 491903.032 -15486952.105 20317756.383 10 0 59955 32400.00000 0 2038936.031 -13422028.336 21644895.211 10 0 59955 33300.00000 0 3825586.689 -11374236.758 22553743.862 10 0 59955 34200.00000 0 5818748.140 -9403655.096 23026622.315 10 0 59955 35100.00000 0 7974685.173 -7564150.677 23054225.978 10 0 59955 36000.00000 0 10240632.045 -5901287.427 22635814.884 10 0 59955 36900.00000 0 12556779.148 -4450589.940 21779243.522 10 0 59955 37800.00000 0 14858568.989 -3236236.049 20500829.612 10 0 59955 38700.00000 0 17079208.873 -2270232.146 18825062.647 10 0 59955 39600.00000 0 19152298.026 -1552106.168 16784155.770 10 0 59955 40500.00000 0 21014461.487 -1069131.960 14417447.357 10 0 59955 41400.00000 0 22607881.771 -797076.820 11770661.523 10 0 59955 42300.00000 0 23882622.488 -701442.262 8895039.843 10 0 59955 43200.00000 0 24798645.830 -739146.906 5846359.389 10 0 59955 44100.00000 0 25327437.779 -860581.386 2683854.981 10 0 59955 45000.00000 0 25453170.687 -1011948.711 -530933.750 10 0 59955 45900.00000 0 25173352.050 -1137790.610 -3735367.884 10 0 59955 46800.00000 0 24498929.927 -1183591.642 -6866942.893 10 0 59955 47700.00000 0 23453848.631 -1098348.855 -9864524.927 10 0 59955 48600.00000 0 22074072.099 -836995.626 -12669563.691 10 0 59955 49500.00000 0 20406115.405 -362574.169 -15227256.217 10 0 59955 50400.00000 0 18505146.384 351938.106 -17487636.623 10 0 59955 51300.00000 0 16432738.053 1322228.394 -19406568.718 10 0 59955 52200.00000 0 14254367.594 2551735.932 -20946620.571 10 0 59955 53100.00000 0 12036768.645 4031267.317 -22077802.753 10 0 59955 54000.00000 0 9845249.568 5739157.014 -22778155.410 10 0 59955 54900.00000 0 7741091.536 7641966.790 -23034172.594 10 0 59955 55800.00000 0 5779136.364 9695694.445 -22841056.061 10 0 59955 56700.00000 0 4005665.262 11847440.530 -22202794.444 10 0 59955 57600.00000 0 2456656.744 14037462.258 -21132067.453 10 0 59955 58500.00000 0 1156495.267 16201527.480 -19649978.355 10 0 59955 59400.00000 0 117182.541 18273469.275 -17785621.469 10 0 59955 60300.00000 0 -661918.173 20187833.561 -15575494.585 10 0 59955 61200.00000 0 -1193797.118 21882508.625 -13062769.253 10 0 59955 62100.00000 0 -1502987.725 23301226.754 -10296434.451 10 0 59955 63000.00000 0 -1624268.175 24395834.039 -7330331.391 10 0 59955 63900.00000 0 -1600932.272 25128234.477 -4222099.224 10 0 59955 64800.00000 0 -1482704.861 25471928.696 -1032052.684 10 0 59955 65700.00000 0 -1323391.300 25413084.734 2177986.256 10 0 59955 66600.00000 0 -1178361.065 24951098.033 5345880.013 10 0 59955 67500.00000 0 -1101971.880 24098619.232 8410367.726 10 0 59955 68400.00000 0 -1145042.618 22881050.121 11312235.999 10 0 59955 69300.00000 0 -1352480.609 21335530.134 13995446.537 10 0 59955 70200.00000 0 -1761162.223 19509456.099 16408200.259 10 0 59955 71100.00000 0 -2398154.801 17458596.992 18503919.132 10 0 59955 72000.00000 0 -3279353.658 15244881.756 20242128.462 10 0 59955 72900.00000 0 -4408590.956 12933950.640 21589224.338 10 0 59955 73800.00000 0 -5777253.969 10592570.147 22519112.967 10 0 59955 74700.00000 0 -7364429.574 8286016.862 23013710.699 10 0 59955 75600.00000 0 -9137570.582 6075536.578 23063295.836 10 0 59955 76500.00000 0 -11053658.408 4015982.066 22666705.539 10 0 59955 77400.00000 0 -13060816.304 2153725.922 21831373.528 10 0 59955 78300.00000 0 -15100308.949 524933.898 20573206.761 10 0 59955 79200.00000 0 -17108848.043 -845730.100 18916301.786 10 0 59955 80100.00000 0 -19021110.371 -1945913.388 16892504.198 10 0 59955 81000.00000 0 -20772365.382 -2775863.950 14540817.444 10 0 59955 81900.00000 0 -22301103.805 -3348186.914 11906670.047 10 0 59955 82800.00000 0 -23551557.726 -3687077.004 9041053.370 10 0 59955 83700.00000 0 -24476006.038 -3827058.071 5999544.923 10 0 59955 84600.00000 0 -25036767.216 -3811281.805 2841234.920 10 0 59955 85500.00000 0 -25207793.624 -3689456.906 -372423.408 99